Tiempo cada hora Caxias do Sul

Hoy, 20 Abril, Martes

Tiempo Temperatura Precipitaciones Viento Presión Humedad
00:00 +11°C° 0 mm 1 mps 696 mmHg 98%
01:00 +11°C° 0 mm 1 mps 696 mmHg 98%
02:00 +11°C° 0 mm 1 mps 696 mmHg 98%
03:00 +10°C° 0 mm 1 mps 696 mmHg 98%
04:00 +10°C° 0 mm 1 mps 696 mmHg 98%
05:00 +10°C° 0 mm 1 mps 696 mmHg 98%
06:00 +10°C° 0 mm 1 mps 696 mmHg 98%
07:00 +12°C° 0 mm 1 mps 696 mmHg 89%
08:00 +14°C° 0 mm 1 mps 697 mmHg 80%
09:00 +16°C° 0 mm 1 mps 698 mmHg 70%
10:00 +19°C° 0 mm 1 mps 698 mmHg 61%
11:00 +21°C° 0 mm 1 mps 698 mmHg 52%
12:00 +24°C° 0 mm 2 mps 698 mmHg 42%
13:00 +24°C° 0 mm 2 mps 698 mmHg 42%
14:00 +24°C° 0 mm 2 mps 697 mmHg 41%
15:00 +25°C° 0 mm 2 mps 697 mmHg 40%
16:00 +21°C° 0 mm 2 mps 697 mmHg 49%
17:00 +19°C° 0 mm 2 mps 696 mmHg 58%
18:00 +17°C° 0 mm 2 mps 696 mmHg 68%
19:00 +16°C° 0 mm 2 mps 696 mmHg 74%
20:00 +14°C° 0 mm 1 mps 697 mmHg 81%
21:00 +13°C° 0 mm 1 mps 697 mmHg 88%
22:00 +13°C° 0 mm 1 mps 697 mmHg 91%
23:00 +12°C° 0 mm 1 mps 697 mmHg 94%

Mañana, 21 Abril, Miércoles

Tiempo Temperatura Precipitaciones Viento Presión Humedad
00:00 +12°C° 0 mm 1 mps 697 mmHg 97%
01:00 +12°C° 0 mm 1 mps 696 mmHg 97%
02:00 +12°C° 0 mm 1 mps 696 mmHg 97%
03:00 +12°C° 0 mm 1 mps 696 mmHg 98%
04:00 +12°C° 0 mm 1 mps 696 mmHg 98%
05:00 +12°C° 0 mm 1 mps 696 mmHg 98%
06:00 +12°C° 0 mm 1 mps 696 mmHg 98%
07:00 +14°C° 0 mm 1 mps 697 mmHg 89%
08:00 +15°C° 0 mm 1 mps 697 mmHg 80%
09:00 +18°C° 0 mm 1 mps 698 mmHg 71%
10:00 +21°C° 0 mm 1 mps 698 mmHg 62%
11:00 +23°C° 0 mm 2 mps 698 mmHg 53%
12:00 +25°C° 0 mm 2 mps 698 mmHg 43%
13:00 +25°C° 0 mm 2 mps 698 mmHg 44%
14:00 +25°C° 0 mm 2 mps 697 mmHg 45%
15:00 +25°C° 0 mm 2 mps 697 mmHg 46%
16:00 +23°C° 0 mm 2 mps 697 mmHg 53%
17:00 +21°C° 0 mm 2 mps 697 mmHg 61%
18:00 +19°C° 0 mm 2 mps 697 mmHg 68%
19:00 +18°C° 0 mm 2 mps 697 mmHg 74%
20:00 +17°C° 0 mm 2 mps 697 mmHg 79%
21:00 +15°C° 0 mm 2 mps 697 mmHg 85%
22:00 +15°C° 0 mm 2 mps 697 mmHg 87%
23:00 +14°C° 0 mm 2 mps 697 mmHg 89%

Pasado mañana, 22 Abril, Jueves

Tiempo Temperatura Precipitaciones Viento Presión Humedad
00:00 +14°C° 0 mm 1 mps 697 mmHg 91%
01:00 +14°C° 0 mm 1 mps 697 mmHg 91%
02:00 +14°C° 0 mm 1 mps 697 mmHg 91%
03:00 +13°C° 0 mm 1 mps 696 mmHg 90%
04:00 +13°C° 0 mm 1 mps 696 mmHg 91%
05:00 +13°C° 0 mm 1 mps 696 mmHg 93%
06:00 +12°C° 0 mm 1 mps 696 mmHg 94%
07:00 +14°C° 0 mm 1 mps 697 mmHg 84%
08:00 +16°C° 0 mm 1 mps 697 mmHg 75%
09:00 +19°C° 0 mm 1 mps 698 mmHg 65%
10:00 +21°C° 0 mm 1 mps 698 mmHg 57%
11:00 +23°C° 0 mm 1 mps 698 mmHg 49%
12:00 +24°C° 0 mm 1 mps 698 mmHg 41%
13:00 +25°C° 0 mm 1 mps 697 mmHg 38%
14:00 +25°C° 0 mm 1 mps 697 mmHg 35%
15:00 +26°C° 0 mm 1 mps 696 mmHg 32%
16:00 +23°C° 0 mm 2 mps 696 mmHg 42%
17:00 +20°C° 0 mm 2 mps 695 mmHg 51%
18:00 +18°C° 0 mm 2 mps 695 mmHg 61%
19:00 +16°C° 0 mm 2 mps 695 mmHg 69%
20:00 +15°C° 0 mm 2 mps 695 mmHg 77%
21:00 +13°C° 0 mm 2 mps 696 mmHg 84%
22:00 +13°C° 0 mm 1 mps 696 mmHg 87%
23:00 +12°C° 0 mm 1 mps 695 mmHg 89%

23 Abril, Viernes

Tiempo Temperatura Precipitaciones Viento Presión Humedad
00:00 +12°C° 0 mm 1 mps 695 mmHg 91%
01:00 +11°C° 0 mm 1 mps 695 mmHg 91%
02:00 +11°C° 0 mm 1 mps 695 mmHg 92%
03:00 +10°C° 0 mm 1 mps 695 mmHg 93%
04:00 +10°C° 0 mm 1 mps 695 mmHg 91%
05:00 +10°C° 0 mm 1 mps 695 mmHg 90%
06:00 +9°C° 0 mm 1 mps 695 mmHg 89%
07:00 +12°C° 0 mm 1 mps 695 mmHg 77%
08:00 +14°C° 0 mm 1 mps 696 mmHg 65%
09:00 +18°C° 0 mm 1 mps 696 mmHg 53%
10:00 +20°C° 0 mm 1 mps 696 mmHg 46%
11:00 +23°C° 0 mm 1 mps 696 mmHg 38%
12:00 +25°C° 0 mm 1 mps 696 mmHg 30%
13:00 +25°C° 0 mm 1 mps 695 mmHg 28%
14:00 +24°C° 0 mm 0 mps 695 mmHg 26%
15:00 +24°C° 0 mm 0 mps 694 mmHg 25%
16:00 +22°C° 0 mm 0 mps 693 mmHg 35%
17:00 +21°C° 0 mm 1 mps 693 mmHg 45%
18:00 +18°C° 0 mm 1 mps 692 mmHg 55%
19:00 +15°C° 0 mm 1 mps 693 mmHg 65%
20:00 +14°C° 0 mm 1 mps 693 mmHg 75%
21:00 +13°C° 0 mm 1 mps 693 mmHg 84%
22:00 +12°C° 0 mm 1 mps 693 mmHg 88%
23:00 +12°C° 0 mm 1 mps 693 mmHg 91%

24 Abril, Sábado

Tiempo Temperatura Precipitaciones Viento Presión Humedad
00:00 +11°C° 0 mm 1 mps 692 mmHg 94%
01:00 +11°C° 0 mm 1 mps 692 mmHg 93%
02:00 +11°C° 0 mm 1 mps 692 mmHg 92%
03:00 +11°C° 0 mm 1 mps 691 mmHg 91%
04:00 +11°C° 0 mm 1 mps 692 mmHg 88%
05:00 +11°C° 0 mm 1 mps 692 mmHg 85%
06:00 +11°C° 0 mm 1 mps 692 mmHg 82%
07:00 +13°C° 0 mm 1 mps 692 mmHg 73%
08:00 +15°C° 0 mm 1 mps 693 mmHg 64%
09:00 +18°C° 0 mm 1 mps 693 mmHg 56%
10:00 +20°C° 0 mm 1 mps 693 mmHg 52%
11:00 +22°C° 0 mm 1 mps 693 mmHg 49%
12:00 +24°C° 0 mm 2 mps 693 mmHg 46%
13:00 +23°C° 0.1 mm 2 mps 693 mmHg 54%
14:00 +21°C° 0.1 mm 2 mps 692 mmHg 61%
15:00 +20°C° 0.1 mm 2 mps 691 mmHg 69%
16:00 +20°C° 0.2 mm 1 mps 691 mmHg 77%
17:00 +18°C° 0.2 mm 1 mps 691 mmHg 85%
18:00 +16°C° 0.2 mm 1 mps 691 mmHg 93%
19:00 +15°C° 0 mm 1 mps 691 mmHg 95%
20:00 +14°C° 0 mm 1 mps 691 mmHg 96%
21:00 +14°C° 0 mm 1 mps 691 mmHg 97%
22:00 +14°C° 0 mm 1 mps 691 mmHg 98%
23:00 +13°C° 0 mm 1 mps 691 mmHg 98%

25 Abril, Domingo

Tiempo Temperatura Precipitaciones Viento Presión Humedad
00:00 +13°C° 0 mm 1 mps 691 mmHg 98%
01:00 +13°C° 0.1 mm 1 mps 691 mmHg 98%
02:00 +13°C° 0.1 mm 1 mps 691 mmHg 99%
03:00 +13°C° 0.1 mm 1 mps 691 mmHg 99%
04:00 +13°C° 0.3 mm 1 mps 691 mmHg 99%
05:00 +12°C° 0.3 mm 0 mps 691 mmHg 99%
06:00 +12°C° 0.3 mm 0 mps 691 mmHg 99%
07:00 +13°C° 0.3 mm 0 mps 691 mmHg 98%
08:00 +14°C° 0.3 mm 1 mps 691 mmHg 98%
09:00 +15°C° 0.3 mm 1 mps 691 mmHg 97%
10:00 +15°C° 0.5 mm 1 mps 691 mmHg 97%
11:00 +15°C° 0.5 mm 1 mps 691 mmHg 97%
12:00 +15°C° 0.5 mm 1 mps 691 mmHg 97%
13:00 +15°C° 0.6 mm 1 mps 691 mmHg 97%
14:00 +15°C° 0.6 mm 1 mps 691 mmHg 97%
15:00 +15°C° 0.6 mm 1 mps 691 mmHg 97%
16:00 +14°C° 0.4 mm 1 mps 691 mmHg 97%
17:00 +13°C° 0.4 mm 1 mps 691 mmHg 97%
18:00 +12°C° 0.4 mm 1 mps 691 mmHg 98%
19:00 +11°C° 0 mm 1 mps 691 mmHg 98%
20:00 +10°C° 0 mm 1 mps 692 mmHg 98%
21:00 +10°C° 0 mm 1 mps 692 mmHg 97%
22:00 +9°C° 0 mm 1 mps 692 mmHg 98%
23:00 +8°C° 0 mm 1 mps 692 mmHg 98%
Mostrar más

Necesitamos Su Consentimiento

Meteoprog y nuestros Proveedores de Servicios pueden almacenar y acceder a sus datos personales como cookies, identificadores de dispositivo u otras tecnologías similares de su dispositivo y procesar dichos datos para personalizar contenido y anuncios, además de ofrecer funciones de redes sociales y analizar el tráfico.

  • Almacenar y/o acceder a información en su dispositivo

    Se puede almacenar o acceder a cookies, identificadores de dispositivo u otra información de su dispositivo para los fines anteriormente indicados.

  • Anuncios y contenido personalizados, medición de anuncios y contenido, percepciones del público, y desarrollo de productos

    Los anuncios y el contenido pueden personalizarse en base a su perfil. Se pueden añadir más datos para personalizar mejor los anuncios y contenidos. Se puede medir el rendimiento de los anuncios y contenidos. Se puede obtener la percepción sobre el público que ha visto los anuncios y contenidos. Dichos datos pueden usarse para desarrollar o mejorar la experiencia del usuario, sistemas y software.

Al hacer clic en ‘Estoy De Acuerdo’ usted permitirá el uso de las cookies, identificadores de dispositivo, balizas web u otras tecnologías similares indicadas. Su configuración puede cambiarse desde el navegador de su dispositivo.

Para ciertos fines, los intereses legítimos pueden ser considerados por encima del consentimiento. Puede leer más sobre ello en nuestra Política de Privacidad y Cookies.